Погода в Магинске

Россия / Республика Башкортостан     55°45′43″N   56°57′56″E
темп.,
°C
ветер,
м/с
пор.,
м/с
влажн.,
%
обл.,
%
осадки,
мм/ч
давл.,
гПа
погр.,
м
20 января, чт
чт2023:00−7ююз61690100 0.1 1021624
02:00−8ю51589100 0.0 1022525
05:00−9ю51491100 0.1 1023521
08:00−9ююз51492100 0.6 1022562
11:00−9ююз51489100 0.9 1022498
14:00−8ююз51388100 0.0 1022506
17:00−10ююз4119183 0.1 1022425
20:00−11ююз4119385 0.1 1023369
21 января, пт
пт2123:00−12ююз3119378 0.1 1023330
02:00−12ююз3118898 0.0 1023338
05:00−13ю288977 0.0 1024214
08:00−15ююв249374 0.0 102467
11:00−12ю298589 0.0 1025251
14:00−8ююз368889 0.0 1024293
17:00−11ю119768 0.0 102510
20:00−16юв219971 0.0 102613
22 января, сб
сб2223:00−17юв119850 0.0 102711
02:00−17юв119859 0.0 102810
05:00−17вюв119782 0.0 102811
08:00−15вюв119798 0.0 102813
11:00−10юв118895 0.0 102847
14:00−5юв128157 0.0 1028221
17:00−8в119594 0.0 102910
20:00−13вюв119861 0.0 10319
23 января, вс
вс2323:00−13юв119796 0.0 103212
02:00−15юв1197100 0.0 10339
05:00−16вюв119881 0.0 103410
08:00−16вюв1197100 0.0 103512
11:00−11вюв1187100 0.0 103638
14:00−6в1181100 0.0 1036115
17:00−8в1195100 0.0 103710
20:00−11вюв1196100 0.0 103917
24 января, пн
пн2423:00−12вюв1196100 0.0 103910
02:00−11в1195100 0.0 104011
05:00−11вюв1194100 0.0 104012
08:00−11юв1195100 0.0 104014
11:00−9юв1186100 0.0 104037
14:00−5ююз0179100 0.0 1039125
17:00−7зюз0095100 0.0 103910
20:00−12ююв1197100 0.0 103910